^^
Saratoga-Weather Station Historical Data
Daily Summary for September 5, 2020 Units:  English    Metric   Both
Daily Weekly Monthly Yearly Custom
  High: Low: Average:
Temperature: 70.2 °F 37.6 °F 53.2 °F
Dew Point: 41.5 °F 33.6 °F 37.2 °F
Humidity: 87% 30% 58%
Wind Speed: 11mph 0mph 1.4mph
Wind Gust: 13mph - -
Wind- - ESE
Pressure: 30.2 in 30 in -
Precipitation: 0 in    
Historical Graphs
 
 
Tabular Data for September 5, 2020
Time Temperature Dew Point Pressure Wind Wind Speed Wind Gust Humidity Rainfall Rate (Hourly) solar
00:00 43.9 °F 35.4 °F 30.2 in Calm     72% 0 in 0 W/m2
00:05 43.9 °F 35.4 °F 30.2 in Calm     72% 0 in 0 W/m2
00:10 43.7 °F 34.9 °F 30.2 in Calm   1 mph 71% 0 in 0 W/m2
00:15 43.7 °F 35.2 °F 30.2 in Calm   1 mph 72% 0 in 0 W/m2
00:20 43.7 °F 35.2 °F 30.2 in Calm     72% 0 in 0 W/m2
00:25 43.5 °F 35.1 °F 30.2 in Calm     72% 0 in 0 W/m2
00:30 43.5 °F 35.1 °F 30.2 in Calm   2 mph 72% 0 in 0 W/m2
00:35 43.3 °F 34.9 °F 30.2 in Calm     72% 0 in 0 W/m2
00:40 43.3 °F 35.2 °F 30.2 in Calm   2 mph 73% 0 in 0 W/m2
00:45 43.3 °F 35.2 °F 30.2 in Calm   1 mph 73% 0 in 0 W/m2
00:50 43.2 °F 35.1 °F 30.2 in Calm   1 mph 73% 0 in 0 W/m2
00:55 43.2 °F 35.1 °F 30.2 in Calm   1 mph 73% 0 in 0 W/m2
01:00 43.2 °F 35.1 °F 30.2 in Calm   2 mph 73% 0 in 0 W/m2
01:05 43 °F 34.9 °F 30.2 in Calm     73% 0 in 0 W/m2
01:10 42.6 °F 34.9 °F 30.2 in Calm   2 mph 74% 0 in 0 W/m2
01:15 42.6 °F 34.9 °F 30.2 in SSE 0.9 mph 1 mph 74% 0 in 0 W/m2
01:20 42.6 °F 34.9 °F 30.2 in Calm   1 mph 74% 0 in 0 W/m2
01:26 42.6 °F 34.9 °F 30.2 in Calm     74% 0 in 0 W/m2
01:31 42.8 °F 34.7 °F 30.2 in Calm   1 mph 73% 0 in 0 W/m2
01:36 43 °F 34.9 °F 30.2 in Calm   1 mph 73% 0 in 0 W/m2
01:41 43 °F 34.9 °F 30.2 in Calm     73% 0 in 0 W/m2
01:46 43 °F 34.9 °F 30.2 in Calm     73% 0 in 0 W/m2
01:51 42.8 °F 34.7 °F 30.2 in Calm     73% 0 in 0 W/m2
01:56 42.4 °F 34.7 °F 30.2 in Calm   1 mph 74% 0 in 0 W/m2
02:01 42.3 °F 34.5 °F 30.2 in SSE 0.9 mph 2 mph 74% 0 in 0 W/m2
02:06 42.3 °F 34.9 °F 30.2 in Calm   1 mph 75% 0 in 0 W/m2
02:11 42.1 °F 34.7 °F 30.2 in Calm   2 mph 75% 0 in 0 W/m2
02:16 41.9 °F 34.5 °F 30.2 in Calm     75% 0 in 0 W/m2
02:21 41.7 °F 34.3 °F 30.2 in Calm     75% 0 in 0 W/m2
02:26 41.5 °F 34.5 °F 30.2 in Calm     76% 0 in 0 W/m2
02:31 41.4 °F 34.3 °F 30.2 in Calm   1 mph 76% 0 in 0 W/m2
02:36 41.4 °F 34.3 °F 30.2 in Calm     76% 0 in 0 W/m2
02:41 41.4 °F 34.3 °F 30.2 in Calm     76% 0 in 0 W/m2
02:46 41.4 °F 34.7 °F 30.2 in Calm     77% 0 in 0 W/m2
02:51 41.4 °F 34.7 °F 30.2 in Calm     77% 0 in 0 W/m2
02:56 41.4 °F 34.7 °F 30.2 in Calm     77% 0 in 0 W/m2
03:01 41.4 °F 34.7 °F 30.2 in Calm     77% 0 in 0 W/m2
03:06 41.2 °F 34.5 °F 30.2 in Calm     77% 0 in 0 W/m2
03:11 41 °F 34.3 °F 30.2 in Calm     77% 0 in 0 W/m2
03:16 40.8 °F 34.5 °F 30.2 in Calm     78% 0 in 0 W/m2
03:21 40.6 °F 34.3 °F 30.2 in Calm     78% 0 in 0 W/m2
03:26 40.5 °F 34.5 °F 30.2 in Calm     79% 0 in 0 W/m2
03:31 40.3 °F 34.3 °F 30.2 in Calm   1 mph 79% 0 in 0 W/m2
03:36 40.3 °F 34.5 °F 30.2 in Calm   1 mph 80% 0 in 0 W/m2
03:42 40.3 °F 34.5 °F 30.2 in Calm     80% 0 in 0 W/m2
03:47 40.1 °F 34.5 °F 30.2 in Calm     80% 0 in 0 W/m2
03:52 39.9 °F 34.3 °F 30.2 in Calm     80% 0 in 0 W/m2
03:57 39.7 °F 34.2 °F 30.2 in Calm     80% 0 in 0 W/m2
04:02 39.6 °F 34 °F 30.2 in Calm     80% 0 in 0 W/m2
04:07 39.6 °F 34.2 °F 30.2 in Calm     81% 0 in 0 W/m2
04:12 39.4 °F 34 °F 30.2 in Calm     81% 0 in 0 W/m2
04:17 39.2 °F 34.2 °F 30.2 in Calm     82% 0 in 0 W/m2
04:22 39.2 °F 34.2 °F 30.2 in Calm     82% 0 in 0 W/m2
04:27 39 °F 34 °F 30.2 in Calm     82% 0 in 0 W/m2
04:32 38.8 °F 33.8 °F 30.2 in Calm     82% 0 in 0 W/m2
04:37 38.8 °F 33.8 °F 30.2 in Calm     82% 0 in 0 W/m2
04:42 38.7 °F 34 °F 30.2 in Calm     83% 0 in 0 W/m2
04:47 38.7 °F 34 °F 30.2 in Calm     83% 0 in 0 W/m2
04:52 38.7 °F 34 °F 30.2 in Calm     83% 0 in 0 W/m2
04:57 38.7 °F 34.2 °F 30.2 in Calm     84% 0 in 0 W/m2
05:02 38.7 °F 34 °F 30.2 in Calm     83% 0 in 0 W/m2
05:07 38.7 °F 34.2 °F 30.2 in Calm     84% 0 in 0 W/m2
05:12 38.7 °F 34.2 °F 30.2 in Calm     84% 0 in 0 W/m2
05:17 38.7 °F 34.2 °F 30.2 in Calm     84% 0 in 0 W/m2
05:22 38.5 °F 34.2 °F 30.2 in Calm   1 mph 84% 0 in 0 W/m2
05:27 38.5 °F 34.2 °F 30.2 in SSE 0.9 mph 2 mph 84% 0 in 0 W/m2
05:32 38.5 °F 34.2 °F 30.2 in SSE 0.9 mph 2 mph 84% 0 in 0 W/m2
05:37 38.5 °F 34.3 °F 30.2 in Calm   1 mph 85% 0 in 0 W/m2
05:42 38.7 °F 34.5 °F 30.2 in SSE 0.9 mph 1 mph 85% 0 in 0 W/m2
05:47 38.8 °F 34.3 °F 30.2 in Calm   1 mph 84% 0 in 0 W/m2
05:52 38.8 °F 34.3 °F 30.2 in SSE 2 mph 2 mph 84% 0 in 0 W/m2
05:57 38.8 °F 34.3 °F 30.2 in SSE 0.9 mph 1 mph 84% 0 in 0 W/m2
06:02 38.7 °F 34.2 °F 30.2 in Calm   1 mph 84% 0 in 0 W/m2
06:07 38.7 °F 34.2 °F 30.2 in Calm   2 mph 84% 0 in 0 W/m2
06:12 38.5 °F 34.2 °F 30.2 in SSE 0.9 mph 2 mph 84% 0 in 0 W/m2
06:17 38.5 °F 34.2 °F 30.2 in SSE 0.9 mph 1 mph 84% 0 in 0 W/m2
06:22 38.5 °F 34.3 °F 30.2 in SSE 0.9 mph 2 mph 85% 0 in 0 W/m2
06:27 38.5 °F 34.3 °F 30.2 in Calm   1 mph 85% 0 in 0 W/m2
06:33 38.3 °F 34.2 °F 30.2 in SSE 0.9 mph 1 mph 85% 0 in 0 W/m2
06:38 38.3 °F 34.2 °F 30.2 in Calm   1 mph 85% 0 in 0 W/m2
06:43 38.1 °F 34 °F 30.2 in Calm     85% 0 in 0 W/m2
06:48 38.1 °F 34 °F 30.2 in Calm     85% 0 in 0 W/m2
06:53 38.1 °F 34 °F 30.2 in Calm     85% 0 in 0 W/m2
06:58 38.1 °F 34 °F 30.2 in Calm     85% 0 in 0 W/m2
07:03 37.9 °F 33.8 °F 30.2 in Calm     85% 0 in 0 W/m2
07:08 37.9 °F 33.8 °F 30.2 in Calm     85% 0 in 5 W/m2
07:13 37.9 °F 33.8 °F 30.2 in Calm     85% 0 in 7 W/m2
07:18 37.8 °F 33.6 °F 30.2 in Calm     85% 0 in 11 W/m2
07:23 37.8 °F 34 °F 30.2 in Calm     86% 0 in 12 W/m2
07:28 37.6 °F 33.8 °F 30.2 in Calm     86% 0 in 16 W/m2
07:33 37.8 °F 34 °F 30.2 in Calm     86% 0 in 18 W/m2
07:38 37.9 °F 34.3 °F 30.2 in Calm     87% 0 in 19 W/m2
07:43 37.9 °F 34.3 °F 30.2 in Calm     87% 0 in 23 W/m2
07:48 38.1 °F 34.5 °F 30.2 in Calm     87% 0 in 25 W/m2
07:53 38.5 °F 34.9 °F 30.2 in Calm     87% 0 in 26 W/m2
07:58 38.8 °F 35.2 °F 30.2 in SSE 0.9 mph 1 mph 87% 0 in 28 W/m2
08:03 39.4 °F 35.6 °F 30.2 in Calm     86% 0 in 30 W/m2
08:08 39.9 °F 35.8 °F 30.2 in Calm     85% 0 in 32 W/m2
08:13 40.6 °F 36 °F 30.2 in SSE 0.9 mph 1 mph 83% 0 in 127 W/m2
08:18 41.5 °F 36.1 °F 30.2 in Calm   1 mph 81% 0 in 142 W/m2
08:23 42.1 °F 36 °F 30.2 in East 2 mph 2 mph 79% 0 in 155 W/m2
08:28 43.2 °F 36.1 °F 30.2 in East 0.9 mph 2 mph 76% 0 in 167 W/m2
08:33 44.1 °F 36.3 °F 30.2 in Calm   1 mph 74% 0 in 183 W/m2
08:38 44.8 °F 36.3 °F 30.2 in ESE 2 mph 2 mph 72% 0 in 195 W/m2
08:43 45.5 °F 36.7 °F 30.2 in ESE 2 mph 3 mph 71% 0 in 209 W/m2
08:48 46.2 °F 36.3 °F 30.2 in ESE 0.9 mph 2 mph 68% 0 in 221 W/m2
08:53 46.8 °F 36.3 °F 30.2 in NE 2 mph 3 mph 67% 0 in 234 W/m2
08:58 47.3 °F 36.5 °F 30.2 in NE 4 mph 5 mph 66% 0 in 246 W/m2
09:03 47.7 °F 36.1 °F 30.2 in NE 2 mph 4 mph 64% 0 in 260 W/m2
09:08 47.8 °F 36.3 °F 30.2 in ENE 2 mph 3 mph 64% 0 in 274 W/m2
09:13 48.2 °F 36.7 °F 30.2 in Calm   4 mph 64% 0 in 287 W/m2
09:18 48.6 °F 36.5 °F 30.2 in ENE 2.9 mph 5 mph 63% 0 in 299 W/m2
09:23 48.7 °F 36.3 °F 30.2 in East 0.9 mph 6 mph 62% 0 in 309 W/m2
09:28 48.9 °F 36.5 °F 30.2 in East 2.9 mph 3 mph 62% 0 in 323 W/m2
09:33 49.3 °F 36.3 °F 30.2 in Calm   7 mph 61% 0 in 70 W/m2
09:38 49.6 °F 37.2 °F 30.2 in NE 2.9 mph 5 mph 62% 0 in 54 W/m2
09:43 50.4 °F 37 °F 30.2 in ENE 0.9 mph 8 mph 60% 0 in 360 W/m2
09:48 50.7 °F 37.4 °F 30.2 in ESE 4 mph 4 mph 60% 0 in 376 W/m2
09:53 51.4 °F 37.6 °F 30.2 in SE 4 mph 8 mph 59% 0 in 385 W/m2
09:58 51.8 °F 37.9 °F 30.2 in NE 0.9 mph 4 mph 59% 0 in 397 W/m2
10:03 52.3 °F 37.9 °F 30.2 in East 2.9 mph 7 mph 58% 0 in 410 W/m2
10:08 52.9 °F 37.6 °F 30.2 in East 0.9 mph 4 mph 56% 0 in 420 W/m2
10:13 53.1 °F 38.3 °F 30.2 in ESE 0.9 mph 4 mph 57% 0 in 434 W/m2
10:18 53.8 °F 38.5 °F 30.2 in East 2 mph 5 mph 56% 0 in 445 W/m2
10:23 54.1 °F 39.2 °F 30.2 in ESE 2 mph 2 mph 57% 0 in 457 W/m2
10:29 54.7 °F 38.8 °F 30.2 in SE 2 mph 4 mph 55% 0 in 469 W/m2
10:34 55.2 °F 38.8 °F 30.2 in NE 2 mph 5 mph 54% 0 in 480 W/m2
10:39 55.4 °F 38.5 °F 30.2 in East 4 mph 5 mph 53% 0 in 490 W/m2
10:44 55.6 °F 38.7 °F 30.2 in East 2 mph 3 mph 53% 0 in 503 W/m2
10:49 55.9 °F 38.5 °F 30.2 in ESE 0.9 mph 3 mph 52% 0 in 512 W/m2
10:54 56.5 °F 39 °F 30.2 in SE 2 mph 7 mph 52% 0 in 520 W/m2
10:59 57.2 °F 39.2 °F 30.2 in NE 4.9 mph 6 mph 51% 0 in 531 W/m2
11:04 57.7 °F 38.7 °F 30.2 in ESE 4 mph 4 mph 49% 0 in 538 W/m2
11:09 58.1 °F 39.6 °F 30.2 in ESE 2 mph 2 mph 50% 0 in 548 W/m2
11:14 58.6 °F 39.6 °F 30.2 in NE 4.9 mph 5 mph 49% 0 in 559 W/m2
11:19 58.6 °F 39 °F 30.2 in ESE 2 mph 4 mph 48% 0 in 568 W/m2
11:24 58.6 °F 39 °F 30.2 in NNE 2.9 mph 6 mph 48% 0 in 575 W/m2
11:29 58.8 °F 39.7 °F 30.2 in ENE 0.9 mph 6 mph 49% 0 in 582 W/m2
11:34 59.4 °F 39.7 °F 30.2 in East 2 mph 4 mph 48% 0 in 592 W/m2
11:39 59.4 °F 39.7 °F 30.2 in East 2 mph 10 mph 48% 0 in 596 W/m2
11:44 59.4 °F 40.3 °F 30.2 in NE 4 mph 6 mph 49% 0 in 605 W/m2
11:49 59.5 °F 39.9 °F 30.2 in ESE 0.9 mph 7 mph 48% 0 in 610 W/m2
11:54 59.7 °F 39.9 °F 30.2 in ENE 2.9 mph 4 mph 48% 0 in 619 W/m2
11:59 59.9 °F 39.6 °F 30.2 in ENE 4 mph 8 mph 47% 0 in 624 W/m2
12:04 60.1 °F 40.3 °F 30.2 in ENE 6 mph 9 mph 48% 0 in 629 W/m2
12:09 60.4 °F 40.1 °F 30.2 in ESE 4 mph 6 mph 47% 0 in 636 W/m2
12:14 61 °F 40.1 °F 30.2 in SE 2 mph 7 mph 46% 0 in 643 W/m2
12:19 61.2 °F 40.8 °F 30.2 in NNE 2 mph 4 mph 47% 0 in 650 W/m2
12:24 61.5 °F 39.9 °F 30.1 in East 2.9 mph 9 mph 45% 0 in 652 W/m2
12:29 61.9 °F 40.3 °F 30.1 in NE 4.9 mph 5 mph 45% 0 in 654 W/m2
12:34 62.1 °F 40.5 °F 30.1 in East 6 mph 11 mph 45% 0 in 661 W/m2
12:39 62.8 °F 39.9 °F 30.1 in NE 2.9 mph 5 mph 43% 0 in 663 W/m2
12:44 62.6 °F 39.7 °F 30.1 in NNE 2 mph 12 mph 43% 0 in 670 W/m2
12:49 63 °F 41.4 °F 30.1 in East 2.9 mph 8 mph 45% 0 in 673 W/m2
12:54 63.3 °F 39.9 °F 30.1 in ESE 4.9 mph 10 mph 42% 0 in 677 W/m2
12:59 63.7 °F 40.8 °F 30.1 in ENE 6.9 mph 10 mph 43% 0 in 680 W/m2
13:04 64 °F 40.5 °F 30.1 in East 0.9 mph 2 mph 42% 0 in 680 W/m2
13:09 64.6 °F 40.3 °F 30.1 in ENE 10 mph 10 mph 41% 0 in 682 W/m2
13:14 64.8 °F 41.2 °F 30.1 in ENE 2 mph 6 mph 42% 0 in 684 W/m2
13:19 64.9 °F 40.6 °F 30.1 in NE 4 mph 8 mph 41% 0 in 686 W/m2
13:24 64.9 °F 40.1 °F 30.1 in South 2 mph 8 mph 40% 0 in 687 W/m2
13:29 64.9 °F 40.1 °F 30.1 in East 2.9 mph 5 mph 40% 0 in 693 W/m2
13:34 65.5 °F 40.5 °F 30.1 in ESE 2 mph 7 mph 40% 0 in 689 W/m2
13:39 65.8 °F 40.1 °F 30.1 in ENE 2 mph 9 mph 39% 0 in 689 W/m2
13:44 66 °F 39.7 °F 30.1 in ESE 2.9 mph 7 mph 38% 0 in 689 W/m2
13:49 66.2 °F 40.5 °F 30.1 in NE 4 mph 5 mph 39% 0 in 686 W/m2
13:54 66.4 °F 40.6 °F 30.1 in SE 4 mph 6 mph 39% 0 in 682 W/m2
13:59 66.6 °F 40.8 °F 30.1 in East 2 mph 6 mph 39% 0 in 682 W/m2
14:04 66.9 °F 40.5 °F 30.1 in East 2.9 mph 4 mph 38% 0 in 687 W/m2
14:09 67.3 °F 40.1 °F 30.1 in NE 2.9 mph 6 mph 37% 0 in 684 W/m2
14:14 67.5 °F 39.6 °F 30.1 in East 2 mph 5 mph 36% 0 in 684 W/m2
14:19 67.3 °F 39.4 °F 30.1 in ESE 11 mph 12 mph 36% 0 in 679 W/m2
14:24 66.9 °F 39.7 °F 30.1 in East 2.9 mph 4 mph 37% 0 in 675 W/m2
14:29 67.3 °F 41.5 °F 30.1 in East 2 mph 7 mph 39% 0 in 675 W/m2
14:34 67.5 °F 39.6 °F 30.1 in ENE 2 mph 7 mph 36% 0 in 668 W/m2
14:39 67.6 °F 39.7 °F 30.1 in East 2.9 mph 7 mph 36% 0 in 663 W/m2
14:45 67.8 °F 39.9 °F 30.1 in ESE 2 mph 5 mph 36% 0 in 657 W/m2
14:50 67.6 °F 40.5 °F 30.1 in ESE 0.9 mph 9 mph 37% 0 in 657 W/m2
14:55 68.2 °F 41 °F 30.1 in ENE 2 mph 7 mph 37% 0 in 654 W/m2
15:00 68.5 °F 40.5 °F 30.1 in ESE 2 mph 9 mph 36% 0 in 647 W/m2
15:05 68.7 °F 39.9 °F 30.1 in NE 0.9 mph 8 mph 35% 0 in 638 W/m2
15:10 68.5 °F 39.7 °F 30.1 in SSE 4 mph 13 mph 35% 0 in 640 W/m2
15:15 68.7 °F 39.9 °F 30.1 in SE 6.9 mph 7 mph 35% 0 in 628 W/m2
15:20 68.7 °F 39.9 °F 30.1 in ENE 6.9 mph 8 mph 35% 0 in 628 W/m2
15:25 68.9 °F 38.7 °F 30.1 in East 6.9 mph 7 mph 33% 0 in 621 W/m2
15:30 68.7 °F 40.6 °F 30.1 in ENE 4 mph 4 mph 36% 0 in 605 W/m2
15:35 69.1 °F 39.6 °F 30.1 in SE 2 mph 5 mph 34% 0 in 605 W/m2
15:40 69.3 °F 38.8 °F 30.1 in East 4.9 mph 10 mph 33% 0 in 594 W/m2
15:45 69.4 °F 39.9 °F 30.1 in ENE 8.1 mph 8 mph 34% 0 in 589 W/m2
15:50 69.3 °F 38.8 °F 30.1 in ESE 2.9 mph 10 mph 33% 0 in 575 W/m2
15:55 69.1 °F 38.8 °F 30.1 in ENE 4 mph 5 mph 33% 0 in 564 W/m2
16:00 69.1 °F 39.6 °F 30.1 in ESE 2 mph 4 mph 34% 0 in 561 W/m2
16:05 69.3 °F 37.4 °F 30.1 in East 2 mph 4 mph 31% 0 in 550 W/m2
16:10 69.1 °F 37.2 °F 30.1 in ESE 2 mph 7 mph 31% 0 in 540 W/m2
16:15 69.1 °F 38.8 °F 30.1 in East 2.9 mph 4 mph 33% 0 in 529 W/m2
16:20 69.4 °F 39 °F 30.1 in ESE 2.9 mph 5 mph 33% 0 in 517 W/m2
16:25 70 °F 39.6 °F 30.1 in ESE 2.9 mph 6 mph 33% 0 in 508 W/m2
16:31 70 °F 39.6 °F 30.1 in East 4.9 mph 7 mph 33% 0 in 501 W/m2
16:36 69.8 °F 38.7 °F 30.1 in ENE 4.9 mph 5 mph 32% 0 in 489 W/m2
16:41 69.8 °F 39.4 °F 30.1 in ESE 0.9 mph 3 mph 33% 0 in 473 W/m2
16:46 70 °F 38.8 °F 30.1 in ESE 2 mph 10 mph 32% 0 in 464 W/m2
16:51 70.2 °F 39.7 °F 30.1 in ESE 6.9 mph 7 mph 33% 0 in 455 W/m2
16:56 70.2 °F 39.7 °F 30.1 in East 6 mph 6 mph 33% 0 in 439 W/m2
17:01 70 °F 38.8 °F 30.1 in SE 4 mph 8 mph 32% 0 in 431 W/m2
17:06 70 °F 39.6 °F 30.1 in East 2 mph 4 mph 33% 0 in 422 W/m2
17:11 69.6 °F 38.5 °F 30.1 in ESE 2 mph 6 mph 32% 0 in 408 W/m2
17:16 69.6 °F 38.5 °F 30 in East 4.9 mph 8 mph 32% 0 in 397 W/m2
17:21 69.6 °F 38.5 °F 30 in East 4 mph 7 mph 32% 0 in 387 W/m2
17:26 69.6 °F 38.5 °F 30 in WSW 2 mph 4 mph 32% 0 in 374 W/m2
17:31 70 °F 38.8 °F 30 in East 4 mph 5 mph 32% 0 in 362 W/m2
17:36 70 °F 37 °F 30 in East 6 mph 9 mph 30% 0 in 352 W/m2
17:41 69.6 °F 37.6 °F 30 in ESE 4 mph 6 mph 31% 0 in 338 W/m2
17:46 69.6 °F 37.6 °F 30 in SSE 2 mph 9 mph 31% 0 in 323 W/m2
17:51 69.8 °F 37.8 °F 30 in ENE 2 mph 12 mph 31% 0 in 311 W/m2
17:56 69.6 °F 37.6 °F 30 in ESE 4 mph 4 mph 31% 0 in 297 W/m2
18:01 69.6 °F 37.6 °F 30 in ESE 2.9 mph 12 mph 31% 0 in 288 W/m2
18:06 69.6 °F 37.6 °F 30 in East 2 mph 2 mph 31% 0 in 274 W/m2
18:11 69.6 °F 37.6 °F 30 in ENE 2 mph 9 mph 31% 0 in 260 W/m2
18:16 69.4 °F 38.3 °F 30 in ESE 0.9 mph 2 mph 32% 0 in 246 W/m2
18:21 69.4 °F 37.4 °F 30 in East 0.9 mph 2 mph 31% 0 in 232 W/m2
18:26 69.3 °F 37.4 °F 30 in East 2 mph 4 mph 31% 0 in 216 W/m2
18:31 69.1 °F 36.3 °F 30 in ESE 2.9 mph 3 mph 30% 0 in 204 W/m2
18:36 69.1 °F 37.9 °F 30 in ESE 4 mph 7 mph 32% 0 in 188 W/m2
18:41 68.7 °F 37.6 °F 30 in SE 2 mph 6 mph 32% 0 in 171 W/m2
18:46 68.7 °F 37.6 °F 30 in SE 0.9 mph 2 mph 32% 0 in 155 W/m2
18:51 68.7 °F 37.6 °F 30 in ESE 2 mph 8 mph 32% 0 in 141 W/m2
18:56 68.5 °F 37.6 °F 30 in East 2 mph 2 mph 32% 0 in 123 W/m2
19:02 68.4 °F 38.1 °F 30 in SE 2.9 mph 3 mph 33% 0 in 109 W/m2
19:07 68.2 °F 38.7 °F 30 in ESE 0.9 mph 2 mph 34% 0 in 95 W/m2
19:12 68 °F 38.7 °F 30 in ESE 2 mph 4 mph 34% 0 in 81 W/m2
19:17 67.6 °F 39 °F 30 in South 0.9 mph 2 mph 35% 0 in 74 W/m2
19:22 67.3 °F 39.4 °F 30 in SSW 0.9 mph 1 mph 36% 0 in 58 W/m2
19:27 66.7 °F 40.3 °F 30 in Calm   2 mph 38% 0 in 44 W/m2
19:32 66 °F 39 °F 30 in Calm     37% 0 in 25 W/m2
19:37 65.1 °F 40.3 °F 30 in SSE 0.9 mph 1 mph 40% 0 in 21 W/m2
19:42 64 °F 39.9 °F 30 in Calm   1 mph 41% 0 in 19 W/m2
19:47 63.1 °F 39.7 °F 30 in Calm   1 mph 42% 0 in 16 W/m2
19:52 62.1 °F 39.4 °F 30 in Calm   1 mph 43% 0 in 14 W/m2
19:57 61.3 °F 39.7 °F 30 in Calm   1 mph 45% 0 in 12 W/m2
20:02 60.4 °F 39 °F 30 in Calm     45% 0 in 11 W/m2
20:07 59.7 °F 39.9 °F 30 in Calm     48% 0 in 7 W/m2
20:12 59.2 °F 39.6 °F 30 in Calm   2 mph 48% 0 in 5 W/m2
20:17 58.5 °F 39.4 °F 30 in Calm     49% 0 in 0 W/m2
20:22 57.7 °F 39.2 °F 30 in Calm   2 mph 50% 0 in 0 W/m2
20:27 57.4 °F 39.4 °F 30 in SE 0.9 mph 2 mph 51% 0 in 0 W/m2
20:32 56.8 °F 39.4 °F 30 in Calm   2 mph 52% 0 in 0 W/m2
20:37 56.3 °F 39.4 °F 30 in Calm   1 mph 53% 0 in 0 W/m2
20:42 55.9 °F 39.6 °F 30 in SSW 0.9 mph 1 mph 54% 0 in 0 W/m2
20:47 55.4 °F 39 °F 30 in Calm   1 mph 54% 0 in 0 W/m2
20:52 54.9 °F 39 °F 30 in SSW 0.9 mph 1 mph 55% 0 in 0 W/m2
20:57 54.5 °F 39.2 °F 30 in Calm   2 mph 56% 0 in 0 W/m2
21:02 54.1 °F 38.8 °F 30 in Calm   2 mph 56% 0 in 0 W/m2
21:07 54 °F 39 °F 30 in SSW 2 mph 2 mph 57% 0 in 0 W/m2
21:12 53.6 °F 38.7 °F 30 in SSW 0.9 mph 1 mph 57% 0 in 0 W/m2
21:17 53.4 °F 38.5 °F 30 in Calm   2 mph 57% 0 in 0 W/m2
21:22 53.2 °F 38.5 °F 30 in Calm     57% 0 in 0 W/m2
21:27 53.1 °F 38.3 °F 30 in Calm     57% 0 in 0 W/m2
21:32 53.1 °F 37.8 °F 30 in Calm     56% 0 in 0 W/m2
21:37 52.9 °F 38.1 °F 30 in Calm     57% 0 in 0 W/m2
21:42 52.7 °F 37.9 °F 30 in Calm     57% 0 in 0 W/m2
21:47 52.5 °F 37.2 °F 30 in Calm     56% 0 in 0 W/m2
21:52 52.5 °F 37.8 °F 30 in Calm     57% 0 in 0 W/m2
21:57 52.3 °F 37.9 °F 30 in Calm     58% 0 in 0 W/m2
22:02 52.3 °F 37.9 °F 30 in Calm     58% 0 in 0 W/m2
22:07 52.2 °F 37.4 °F 30 in Calm     57% 0 in 0 W/m2
22:12 52 °F 37.6 °F 30 in Calm     58% 0 in 0 W/m2
22:17 51.8 °F 37.6 °F 30 in Calm     58% 0 in 0 W/m2
22:22 51.6 °F 37.8 °F 30 in Calm     59% 0 in 0 W/m2
22:27 51.6 °F 37.8 °F 30 in Calm     59% 0 in 0 W/m2
22:32 51.4 °F 37.2 °F 30 in Calm     58% 0 in 0 W/m2
22:37 51.3 °F 37.8 °F 30 in Calm     60% 0 in 0 W/m2
22:42 51.1 °F 38.1 °F 30 in Calm     61% 0 in 0 W/m2
22:47 50.7 °F 37.8 °F 30 in Calm     61% 0 in 0 W/m2
22:53 50.5 °F 37.9 °F 30 in Calm     62% 0 in 0 W/m2
22:58 50.4 °F 37.8 °F 30 in Calm     62% 0 in 0 W/m2
23:03 50.2 °F 38.1 °F 30 in Calm     63% 0 in 0 W/m2
23:08 50.2 °F 38.1 °F 30 in Calm     63% 0 in 0 W/m2
23:13 50 °F 37.9 °F 30 in Calm     63% 0 in 0 W/m2
23:18 49.8 °F 38.1 °F 30 in Calm     64% 0 in 0 W/m2
23:23 50 °F 38.3 °F 30 in Calm     64% 0 in 0 W/m2
23:28 49.8 °F 38.5 °F 30 in Calm     65% 0 in 0 W/m2
23:33 49.8 °F 38.5 °F 30 in Calm     65% 0 in 0 W/m2
23:38 49.6 °F 37.9 °F 30 in Calm     64% 0 in 0 W/m2
23:43 49.5 °F 37.8 °F 30 in Calm     64% 0 in 0 W/m2
23:48 49.3 °F 37.6 °F 30 in Calm     64% 0 in 0 W/m2
23:53 49.3 °F 37.6 °F 30 in Calm     64% 0 in 0 W/m2
23:58 49.3 °F 37.9 °F 30 in Calm     65% 0 in 0 W/m2
Juneau County Weather
Compliments of Weather Underground - 4 mb